2020-102C (47298 NORAD) Tracking and Keplerian Element Data
This shows tracking and keplerian element data for the satellite.
Feedback or suggestion? Click here.
Element | Value |
Catalog | 47298 |
Name | 2020-102C |
Epoch Orbit | 454 |
Epoch Day | 21.07888491 |
Epoch Year | 2021 |
RAAN | 121.028 |
Inclination | 97.3927 |
Eccentricity | 0.0002059 |
Argument of Perigee | 126.1345 |
Mean Anonmoly | 335.648 |
Mean Motion | 15.23566822 |
Decay Rate | 1.401E-05 |
L1 | 1 47298U 20102C 21021.07888491 .00001401 00000-0 61541-4 0 9993 |
L2 | 2 47298 97.3927 121.0280 0002059 126.1345 335.6480 15.23566822 4543 |
Live tracking and technical data element details for 2020-102C (NORAD 47298). 2020-102C can be tracked NOW for your location showing map with azimuth and elevation plus other details from your city location.
Track the satellite on the map from your city or location and see movement details for azimuth, elevation, latitude, longitude, range, height, and movement on the map or in text.
IsCatalogInMostPopularTable: catalog: 47298, numindb: 11
Update: records affected: 1
GetName: 47298 2020-102C
Hit Count: updated at: Sat, 23 Jan 2021 17:02:32 GMT